MyTimes logo

TIMES

Webb Imagery

5/02/2000
Channel Challenge
550m Swim / 2.0km Run

(Click on competitor name to view personalised results)

Name
Race #
Category
Time
(h:mm:ss)
Avg Speed
km/hr
OAll
Place
Cat
Place
VAN WISSE John#172Senior Male0:11:29 13.3 11
RIX Joshua#9Senior Male0:11:39 13.1 22
MC KENZIE Craig#18Senior Male0:11:55 12.8 33
HUME Sam#176Senior Male0:12:05 12.7 44
SPIERINGS Martin#31Senior Male0:12:11 12.6 55
GARDNER Peter#188Senior Male0:12:12 12.5 66
O'CONNELL Penny#343Senior Female0:12:45 12 71
LETSON Brent#123Senior Male0:12:51 11.9 87
HARRISS Justin#12Senior Male0:12:58 11.8 98
WALLER Mark#55Senior Male0:13:00 11.8 109
ARMSTRONG Graeme#30740+ Male0:13:22 11.4 111
EVANS Brad#11Senior Male0:13:29 11.3 1210
GORDON Michael#31440+ Male0:13:43 11.2 132
CARD Sarah#420Senior Female0:14:10 10.8 142
DESSENT Michael#156Senior Male0:14:18 10.7 1511
NEWTON Rodney#49Senior Male0:14:21 10.7 1612
YUSKO Bill#32340+ Male0:14:21 10.7 173
DALLINGER Chris#10Senior Male0:14:27 10.6 1813
LENNE Heath#446Junior Male0:14:29 10.6 191
PUGH Tim#70Senior Male0:14:30 10.6 2014
FLEISNER Rob#31240+ Male0:14:36 10.5 214
YUSKO Daniel#335Junior Male0:14:36 10.5 222
GROSS Mark#106Senior Male0:14:37 10.5 2315
COWELL Darren#52Senior Male0:14:38 10.5 2416
KEARNS Matthew#124Senior Male0:14:39 10.4 2517
RICE Timothy#76Senior Male0:14:43 10.4 2618
RINGROSE Glyndyn#206Senior Male0:14:47 10.3 2719
MCLEOD Craig#159Senior Male0:14:51 10.3 2820
BLYTHE Kathy#353Junior Female0:14:53 10.3 291
FLANNAGAN David#137Senior Male0:14:54 10.3 3021
O'CONNELL Sarah#325Junior Female0:14:55 10.3 312
BREACH Paul#146Senior Male0:14:56 10.2 3222
MOCK Wayne#149Senior Male0:14:59 10.2 3323
HOLMES Michael#182Senior Male0:15:07 10.1 3424
BRUCE Stephen#109Senior Male0:15:07 10.1 3525
FOLEY Chris#54Senior Male0:15:08 10.1 3626
VELLIN Marc#20Senior Male0:15:08 10.1 3727
NAK Rooney#34Senior Male0:15:09 10.1 3828
RUDDICK Tony#32240+ Male0:15:09 10.1 395
STEVENSON Darren#62Senior Male0:15:10 10.1 4029
LEGGATT Jim#201Senior Male0:15:15 10 4130
PANEBIANCO Leigh#332Junior Male0:15:17 10 423
JENE Charlie#400Junior Male0:15:19 10 434
PHELPS Troy#203Senior Male0:15:20 10 4431
SPOTTISWOOD James#334Junior Male0:15:22 10 455
FORD Penny#507Senior Female0:15:22 10 463
PAPROTH Dale#202Senior Male0:15:23 9.9 4732
NICHOLSON Steven#540Junior Male0:15:25 9.9 486
DAVIS Robbie#193Senior Male0:15:26 9.9 4933
COOK Vicki#30240+ Female0:15:26 9.9 501
JONES Brian#59Senior Male0:15:28 9.9 5134
MAYERS Stuart#170Senior Male0:15:28 9.9 5235
TRUSCOTT Colin#398Junior Male0:15:28 9.9 537
HARBISON Derek#103Senior Male0:15:29 9.9 5436
WATKINS Robb#197Senior Male0:15:32 9.8 5537
FORD Warwick#148Senior Male0:15:33 9.8 5638
CORBETT Jim#200Senior Male0:15:33 9.8 5739
GIBSON Glen#63Senior Male0:15:34 9.8 5840
HEWETT Noel#13Senior Male0:15:35 9.8 5941
MCDOUGALL Andrew#136Senior Male0:15:35 9.8 6042
PHILLIPS Ian#114Senior Male0:15:35 9.8 6143
DALLINGER Andrew#26Senior Male0:15:37 9.8 6244
VELLA Haydn#179Senior Male0:15:39 9.8 6345
FOXTON Rebecca#560Senior Female0:15:40 9.8 644
TRUSCOTT Brett#66Senior Male0:15:44 9.7 6546
SHAW Roger#41Senior Male0:15:47 9.7 6647
JAIN Kalita#341Senior Female0:15:48 9.7 675
STERLAND Chantelle#492Senior Female0:15:53 9.6 686
JENE Oliver#439Junior Male0:15:54 9.6 698
ROBINS Craig#24Senior Male0:15:55 9.6 7048
CROFT Gregory#36Senior Male0:15:57 9.6 7149
ELVISH Joanne#496Senior Female0:16:01 9.6 727
SIMONDS Nicholas#82Senior Male0:16:01 9.6 7350
JOHNSON Glen#160Senior Male0:16:02 9.5 7451
HUME Blair#205Senior Male0:16:03 9.5 7552
STINEAR Tim#207Senior Male0:16:08 9.5 7653
CHISOLM Andy#110Senior Male0:16:11 9.5 7754
MARSHALL Luke#17Senior Male0:16:12 9.4 7855
DIXON Ben#147Senior Male0:16:14 9.4 7956
WRIGHT Ryan#532Junior Male0:16:17 9.4 809
JENE Cassie#440Junior Female0:16:17 9.4 813
JAMES Dylon#462Junior Male0:16:17 9.4 8210
TREVENA Martin#33Senior Male0:16:19 9.4 8357
ROWSON Paul#86Senior Male0:16:19 9.4 8458
JUDD Gary#46340+ Male0:16:19 9.4 856
F'PLACE Jessica#536Senior Female0:16:19 9.4 868
WILLIAMS Kellie#348Senior Female0:16:21 9.4 879
BURT Ainslee#468Junior Female0:16:21 9.4 884
BREWSTER Neil#55840+ Male0:16:22 9.3 897
BARNES John#30840+ Male0:16:26 9.3 908
CLINTON Bradley#185Senior Male0:16:28 9.3 9159
MOYLAN Nicholas#473Junior Male0:16:30 9.3 9211
BRADEN Michael#7Senior Male0:16:32 9.3 9360
VOS Howard#157Senior Male0:16:33 9.2 9461
LEE Daniel#141Senior Male0:16:34 9.2 9562
ROLLAND Thierry#23Senior Male0:16:35 9.2 9663
KITNEY Mark#131Senior Male0:16:35 9.2 9764
MOSSE Peter#44440+ Male0:16:35 9.2 989
BONACCI Angelo#72Senior Male0:16:37 9.2 9965
TAYLOR Graham#51Senior Male0:16:40 9.2 10066
LEVERSHA David#31840+ Male0:16:40 9.2 10110
SMITH Jennifer#327Junior Female0:16:40 9.2 1025
BARRY'MAC David#403Junior Male0:16:41 9.2 10312
HEATH Brad#118Senior Male0:16:42 9.2 10467
MCMASTER Paul#139Senior Male0:16:44 9.1 10568
SWABY Benjamin#399Junior Male0:16:44 9.1 10613
JAMES Marne#480Senior Female0:16:49 9.1 10710
HACKETT John#187Senior Male0:16:51 9.1 10869
LAMONT Cathie#451Senior Female0:16:52 9.1 10911
KENT Ryan#331Junior Male0:16:53 9.1 11014
MACMILLAN Matthew#111Senior Male0:16:54 9.1 11170
LEE Lawrence#195Senior Male0:16:55 9 11271
TELFERWILLIAMS Cas#513Junior Male0:16:55 9 11315
NICHOLSON Peter#46640+ Male0:16:56 9 11411
COOPER Peter#189Senior Male0:16:59 9 11572
MASON John#48240+ Male0:17:00 9 11612
WYNNE Simon#85Senior Male0:17:02 9 11773
CLOSE Jason#8Senior Male0:17:03 9 11874
FALLOON Darren#173Senior Male0:17:04 9 11975
REED Helen#528Senior Female0:17:06 8.9 12012
HAYES Albert#45Senior Male0:17:07 8.9 12176
BALDING Rachel#449Senior Female0:17:08 8.9 12213
FERGUSON Andrew#68Senior Male0:17:09 8.9 12377
MC LEOD Alex#16Senior Male0:17:09 8.9 12478
DAFF Jessica#461Senior Female0:17:10 8.9 12514
BOROMEO Gavin#129Senior Male0:17:11 8.9 12679
RYDER Brett#22Senior Male0:17:12 8.9 12780
TASSELL Lucy#421Senior Female0:17:12 8.9 12815
STEVIC Michael#37740+ Male0:17:12 8.9 12913
RODGERS Andrew#25Senior Male0:17:13 8.9 13081
MILLER Todd#101Senior Male0:17:16 8.9 13182
BROWN Ron#107Senior Male0:17:19 8.8 13283
ROBERT Tony#90Senior Male0:17:20 8.8 13384
STYRING Damien#144Senior Male0:17:22 8.8 13485
SCULLY Chris#145Senior Male0:17:23 8.8 13586
CAMPBELL Paul#167Senior Male0:17:23 8.8 13687
BERESFORD Jason#79Senior Male0:17:24 8.8 13788
BROWN Matthew#330Junior Male0:17:25 8.8 13816
DUGGAN Matt#548Junior Male0:17:25 8.8 13917
DAFF Geoff#42640+ Male0:17:25 8.8 14014
CREAN Angela#381Senior Female0:17:26 8.8 14116
VALENA Rex#39240+ Male0:17:26 8.8 14215
KORZINA Craig#183Senior Male0:17:27 8.8 14389
STONE Brad#102Senior Male0:17:28 8.8 14490
TULLOCH Scott#94Senior Male0:17:28 8.8 14591
OSHEA Angela#527Senior Female0:17:31 8.7 14617
HORACEK Francis#133Senior Male0:17:31 8.7 14792
REID Karina#345Senior Female0:17:31 8.7 14818
PURCELL Jon#89Senior Male0:17:32 8.7 14993
MCHENRY Andrew#494Junior Male0:17:32 8.7 15018
REYNOLDS Darren#96Senior Male0:17:33 8.7 15194
BEOVICH Mark#6Senior Male0:17:34 8.7 15295
RUSSELL Jane#542Senior Female0:17:34 8.7 15319
BURGER Damien#209Senior Male0:17:35 8.7 15496
STEER Andrew#208Senior Male0:17:37 8.7 15597
SALTER Ashley#117Senior Male0:17:39 8.7 15698
CANNING Geoff#194Senior Male0:17:40 8.7 15799
EVANS Bree#324Junior Female0:17:41 8.7 1586
DICKSON Ron#165Senior Male0:17:42 8.6 159100
CALDWELL Jenny#46940+ Female0:17:44 8.6 1602
FECHNER Stuart#116Senior Male0:17:45 8.6 161101
PRETTY Klete#402Junior Male0:17:45 8.6 16219
CLARK Nick#119Senior Male0:17:46 8.6 163102
FISHER Kevin#97Senior Male0:17:46 8.6 164103
WHITEHOUSE Richard#54640+ Male0:17:46 8.6 16516
JAKOBI Dean#53Senior Male0:17:47 8.6 166104
ANDERSON Garry#30640+ Male0:17:47 8.6 16717
POULTON Andrew#134Senior Male0:17:49 8.6 168105
SUNDERLAND Peter#37540+ Male0:17:50 8.6 16918
MCHENRY Simon#493Junior Male0:17:51 8.6 17020
ZOANETTI Luke#464Junior Male0:17:52 8.6 17121
KING Dean#191Senior Male0:17:53 8.6 172106
TROJAN Lara#347Senior Female0:17:53 8.6 17320
KEOGH Peter#180Senior Male0:17:53 8.6 174107
GILLIES Bill#55940+ Male0:17:53 8.6 17519
BROWN Robyn#354Senior Female0:17:54 8.5 17621
CURRIE Brendan#40Senior Male0:17:55 8.5 177108
TROJAN Nadia#328Junior Female0:17:55 8.5 1787
WHYTE Neville#52540+ Male0:17:55 8.5 17920
FAIRTHORNE Mark#87Senior Male0:17:56 8.5 180109
DALLINGER Brian#31040+ Male0:17:56 8.5 18121
CAMPBELL Chunk#457Junior Male0:17:56 8.5 18222
RINGROSE Paul#37040+ Male0:17:56 8.5 18322
SYME Kate#448Senior Female0:17:57 8.5 18422
CORNWALL Ben#561Junior Male0:18:02 8.5 18523
FLANNAGAN Jason#198Senior Male0:18:04 8.5 186110
JAMES David#51140+ Male0:18:04 8.5 18723
MADDEN Bryan#210Senior Male0:18:06 8.5 188111
LEVERSHA Lyn#30440+ Female0:18:07 8.4 1893
INNES Chris#42Senior Male0:18:08 8.4 190112
KEADY Richard#31740+ Male0:18:13 8.4 19124
GREGORY Arron#184Senior Male0:18:18 8.4 192113
WADELTON Brett#64Senior Male0:18:21 8.3 193114
MILLER Lisa Jane#30540+ Female0:18:21 8.3 1944
MARUM Ellyce#518Junior Female0:18:22 8.3 1958
BARWELL Lachlan#151Senior Male0:18:23 8.3 196115
ADAMS Gavin#181Senior Male0:18:25 8.3 197116
CIRULIS Eric#171Senior Male0:18:26 8.3 198117
MANNING Simon#19Senior Male0:18:26 8.3 199118
ROWE Claire#387Senior Female0:18:26 8.3 20023
NIEMIEL Andrew#73Senior Male0:18:27 8.3 201119
KYLE Danielle#342Senior Female0:18:27 8.3 20224
PEWTRESS Stephen#67Senior Male0:18:28 8.3 203120
CALDWELL Les#47040+ Male0:18:30 8.3 20425
JONES Paul#169Senior Male0:18:31 8.3 205121
SMITH Damian#140Senior Male0:18:32 8.3 206122
CROOKS Matthew#155Senior Male0:18:33 8.2 207123
WILLIAMS Dwayne#512Junior Male0:18:33 8.2 20824
KISS Pam#49540+ Female0:18:34 8.2 2095
DOOM Kathy#337Senior Female0:18:41 8.2 21025
TANCHEFF Brian#48640+ Male0:18:41 8.2 21126
BILSTON David#190Senior Male0:18:44 8.2 212124
BERTUNA Joe#95Senior Male0:18:48 8.1 213125
HODGE Daralyn#562Senior Female0:18:49 8.1 21426
ADAMS Simon#113Senior Male0:18:53 8.1 215126
PARSONS Donal#37Senior Male0:18:56 8.1 216127
LOOMES Claire#543Senior Female0:18:57 8.1 21727
SHEPPARD Sam#135Senior Male0:18:59 8.1 218128
PEARCE Brad#164Senior Male0:18:59 8.1 219129
REED Mark#21Senior Male0:19:01 8 220130
MATTHEWS Robert#31940+ Male0:19:01 8 22127
BASILE Paul#65Senior Male0:19:02 8 222131
MARRIOT Mary#383Senior Female0:19:05 8 22328
MARUM Justine#517Junior Female0:19:05 8 2249
MORRISON Adam#154Senior Male0:19:08 8 225132
KIMMINS Rod#52240+ Male0:19:09 8 22628
WILLIAMS Jodie#530Senior Female0:19:10 8 22729
DOLE Matthew#88Senior Male0:19:11 8 228133
BEHRSIN John#38940+ Male0:19:11 8 22929
ELLIS Michael#48940+ Male0:19:14 8 23030
CAMERON Jane#459Senior Female0:19:15 7.9 23130
SEING Justin#29Senior Male0:19:16 7.9 232134
WHAN Cathy#549Senior Female0:19:17 7.9 23331
ACKLAND Trevor#57Senior Male0:19:18 7.9 234135
FLEISNER Paul#31340+ Male0:19:18 7.9 23531
LITTLE Nathan#98Senior Male0:19:19 7.9 236136
DIPIETRO Joshua#91Senior Male0:19:22 7.9 237137
THOMAS Elenor#520Junior Female0:19:22 7.9 23810
GEORGE Natalie#478Senior Female0:19:25 7.9 23932
EDEN Shea#162Senior Male0:19:28 7.9 240138
GODDEN Belinda#533Senior Female0:19:32 7.8 24133
NICHOLSON Peter#52440+ Male0:19:32 7.8 24232
BARRY Lawri#438Senior Female0:19:33 7.8 24334
ELLIS James#491Junior Male0:19:34 7.8 24425
BARRY Karina#437Senior Female0:19:34 7.8 24535
JOHNSTON John#177Senior Male0:19:35 7.8 246139
PURCELL Jenna#433Senior Female0:19:35 7.8 24736
WYATT Cameron#142Senior Male0:19:40 7.8 248140
HOSKING Elizabeth#42340+ Female0:19:40 7.8 2496
CONNOLLY Sean#108Senior Male0:19:41 7.8 250141
KOPKE Gabrielle#488Senior Female0:19:41 7.8 25137
JONES Vicki#359Senior Female0:19:42 7.8 25238
FITZSIMON Brendan#161Senior Male0:19:44 7.8 253142
SCOTT Ash#121Senior Male0:19:45 7.7 254143
FISHER Simon#99Senior Male0:19:46 7.7 255144
YUSKO Imogen#329Junior Female0:19:46 7.7 25611
FURLONG Damian#178Senior Male0:19:48 7.7 257145
BROWNE Daryl#43Senior Male0:19:51 7.7 258146
VAN BREEMAN Deanne#385Senior Female0:19:52 7.7 25939
SMITH Paul#48540+ Male0:19:53 7.7 26033
FETTERPLACE David#31140+ Male0:19:53 7.7 26134
CHALLINOR Michael#204Senior Male0:19:56 7.7 262147
PEART Jessica#503Senior Female0:19:58 7.7 26340
EVERETT Glenn#127Senior Male0:20:00 7.6 264148
EVANS Kim#338Senior Female0:20:00 7.6 26541
NICHOLSON Gavin#42740+ Male0:20:01 7.6 26635
CHASTON Peter#52140+ Male0:20:03 7.6 26736
HALLENSTEIN Birgit#384Senior Female0:20:07 7.6 26842
BOYCE Jason#69Senior Male0:20:08 7.6 269149
CLARKE Jarrod#138Senior Male0:20:09 7.6 270150
SUTH'LAND Josephi#523Senior Female0:20:12 7.6 27143
IGLESIAS Philip#50Senior Male0:20:13 7.6 272151
SELBY Jason#30Senior Male0:20:14 7.6 273152
WILKINSON Michael#92Senior Male0:20:17 7.5 274153
COLBY Ross#54740+ Male0:20:17 7.5 27537
TASSELL Jessica#418Junior Female0:20:18 7.5 27612
RODGERS Adam#333Junior Male0:20:19 7.5 27726
SUNDERLAND Carla#534Senior Female0:20:20 7.5 27844
BALL Ken#45240+ Male0:20:23 7.5 27938
STEPHENS Ron#38040+ Male0:20:27 7.5 28039
SHERRARD Philip#81Senior Male0:20:28 7.5 281154
KLENE John#48440+ Male0:20:29 7.5 28240
CHAPMAN Wayne#132Senior Male0:20:30 7.5 283155
CLIFFORD Greg#196Senior Male0:20:31 7.5 284156
WEBB Simon#163Senior Male0:20:32 7.5 285157
SMITH Shaun#153Senior Male0:20:33 7.4 286158
ARNOLD Jodie#529Senior Female0:20:33 7.4 28745
GRAY Anthony#39Senior Male0:20:35 7.4 288159
HUNTRISS Nicole#340Senior Female0:20:37 7.4 28946
DUKE Lisa#419Senior Female0:20:39 7.4 29047
PATKIN Sally#453Senior Female0:20:42 7.4 29148
FREEMAN Heather#497Senior Female0:20:42 7.4 29249
GILLIN Georgina#339Senior Female0:20:43 7.4 29350
DRISCOLL Darren#112Senior Male0:20:44 7.4 294160
DICKSON Karin#537Senior Female0:20:46 7.4 29551
MOSSE Kim#443Junior Female0:20:52 7.3 29613
TAYLOR Rick#42840+ Male0:20:53 7.3 29741
REID John#32140+ Male0:20:55 7.3 29842
YOUNG Kari#510Junior Female0:20:55 7.3 29914
SMITH Ken#128Senior Male0:20:57 7.3 300161
VAWDON Margaret#54440+ Female0:20:58 7.3 3017
VEGA Daniel#407Junior Male0:21:00 7.3 30227
MURPHY Adam#401Junior Male0:21:00 7.3 30328
DAVINE Derry#39140+ Male0:21:09 7.2 30443
GILBERT Ben#502Junior Male0:21:09 7.2 30529
SHERWOOD Abbie#422Junior Male0:21:10 7.2 30630
ORSINI Raff#77Senior Male0:21:13 7.2 307162
BEAUMONT Darren#48Senior Male0:21:13 7.2 308163
JOHNSTON Brian#31640+ Male0:21:15 7.2 30944
PRENDERGAST Kelly#458Senior Female0:21:18 7.2 31052
FALLOON Cameron#174Senior Male0:21:18 7.2 311164
SWINDLEY David#32Senior Male0:21:27 7.1 312165
CREAN Peter#39040+ Male0:21:29 7.1 31345
CARTER Sandra#538Junior Female0:21:30 7.1 31415
PRITCHARD Andrew#158Senior Male0:21:33 7.1 315166
MILLER Claire#556Senior Female0:21:34 7.1 31653
WATT Stephen#152Senior Male0:21:35 7.1 317167
HOSKING Robert#31540+ Male0:21:38 7.1 31846
NICHOLSON Mary#46540+ Female0:21:39 7.1 3198
PEART Katie#504Senior Female0:21:44 7 32054
DEVLYN Shane#126Senior Male0:21:45 7 321168
CLASWORTHY John#104Senior Male0:21:50 7 322169
PHOTOPOULOS Con#37640+ Male0:21:51 7 32347
ROOKS David#27Senior Male0:21:52 7 324170
HALLIDAY Craig#47Senior Male0:21:53 7 325171
THOMAS Brad#80Senior Male0:21:55 7 326172
BRACKEN Rory#120Senior Male0:21:57 7 327173
NISH Dennis#41440+ Male0:21:59 7 32848
CRUICHSHANK Kate#500Junior Female0:22:10 6.9 32916
RASMUSSEN Nicole#460Senior Female0:22:12 6.9 33055
STEINICKE Angus#125Senior Male0:22:14 6.9 331174
STEWART Jason#143Senior Male0:22:18 6.9 332175
MURRAY Michael#52640+ Male0:22:20 6.9 33349
MULLER Amanda#509Senior Female0:22:23 6.8 33456
MULLER Tania#508Senior Female0:22:23 6.8 33557
BURROWS Karen#356Senior Female0:22:24 6.8 33658
PRENDERGAST Kevin#32040+ Male0:22:28 6.8 33750
WALKER Christine#36240+ Female0:22:31 6.8 3389
WILLIAMS Estelle#514Junior Female0:22:31 6.8 33917
MADDIGAN Peter#50540+ Male0:22:33 6.8 34051
REED Paul#168Senior Male0:22:35 6.8 341176
HOPKINS Barry#42540+ Male0:22:35 6.8 34252
STEPHENS Jennifer#379Senior Female0:22:37 6.8 34359
WILSON Noni#519Junior Female0:22:37 6.8 34418
CLAREBROUGH Annika#382Senior Female0:22:39 6.8 34560
HOOPER Mick#36740+ Male0:22:40 6.7 34653
CAREY Brendan#93Senior Male0:22:42 6.7 347177
LAWSON Simone#378Senior Female0:22:47 6.7 34861
HURLEY Monica#563Senior Female0:22:50 6.7 34962
BURRIME Stuart#192Senior Male0:22:51 6.7 350178
EYEFIELD Jeanine#413Senior Female0:22:51 6.7 35163
SCHOLTEN Herman#37240+ Male0:22:52 6.7 35254
FURPHY Annabelle#455Senior Female0:22:53 6.7 35364
SMITH Katie#541Senior Female0:23:00 6.7 35465
BROOKS Barbera#36340+ Female0:23:04 6.6 35510
SAWFORD Tony#35Senior Male0:23:05 6.6 356179
DENNIS Kim#456Senior Female0:23:07 6.6 35766
HUGHES Bronwyn#39740+ Female0:23:11 6.6 35811
WRIGHT P#53140+ Male0:23:19 6.6 35955
BREWIN Cathy#557Senior Female0:23:22 6.5 36067
ROBINSON Sandy#361Senior Female0:23:23 6.5 36168
REMINE Maria#506Senior Female0:23:23 6.5 36269
WOOD Frances#550Senior Female0:23:25 6.5 36370
POWELL Dawn#358Senior Female0:23:30 6.5 36471
BEST Kristie#501Senior Female0:23:35 6.5 36572
ALCOCK Sue#357Senior Female0:23:40 6.5 36673
WILKINSON Debbie#431Senior Female0:23:52 6.4 36774
MCDONALD Carolyn#498Senior Female0:23:55 6.4 36875
LEDDIN Peter#373Senior Male0:24:00 6.4 369180
SYME Michael#44740+ Male0:24:03 6.4 37056
ESNOUF John#55440+ Male0:24:08 6.3 37157
BREWIN Dennis#54540+ Male0:24:14 6.3 37258
DALLINGER Kevin#42440+ Male0:24:21 6.3 37359
CRUSE Matthew#408Junior Male0:24:25 6.3 37431
ZIMMERMAN Kirrily#349Senior Female0:24:26 6.3 37576
SCOTT Cassandra#515Senior Female0:24:30 6.2 37677
FORD Anne#555Senior Female0:24:32 6.2 37778
WILKINSON Daryl#43240+ Male0:24:34 6.2 37860
BUGBIRD Scott#56Senior Male0:24:47 6.2 379181
WEBSTER Lisa#564Senior Female0:24:54 6.1 38079
SNOWDEN Lori#346Senior Female0:25:00 6.1 38180
ORR Kylie#441Senior Female0:25:01 6.1 38281
SALTER Courtney#474Junior Female0:25:01 6.1 38319
WEBB David#78Senior Male0:25:04 6.1 384182
COLEMAN Mark#38Senior Male0:25:12 6.1 385183
O'DONOHUE X#122Senior Male0:25:13 6.1 386184
CLARK Benedict#39340+ Male0:25:22 6 38761
HANNON Bhavani#355Senior Female0:25:23 6 38882
WEIR Kobey#436Junior Female0:25:30 6 38920
SESTI Fiona#409Junior Female0:25:35 6 39021
PAPADOPOU Nicolas#150Senior Male0:25:38 6 391185
KAUCNER Christine#450Senior Female0:25:42 6 39283
REEK George#45440+ Male0:26:12 5.8 39362
IMLACH Malcolm#55340+ Male0:26:19 5.8 39463
REED Jacqui#539Senior Female0:26:26 5.8 39584
TAYLOR Sarah#435Junior Female0:26:29 5.8 39622
WOODWARD Tina#429Junior Female0:26:41 5.7 39723
JENSCH Peter#44540+ Male0:27:10 5.6 39864
DUNCAN Leah#516Junior Female0:27:36 5.5 39924
TUCKER Adam#186Senior Male0:27:48 5.5 400186
GILES Helen#47140+ Female0:27:49 5.5 40112
K'GOURIS Earlene#30340+ Female0:27:51 5.5 40213
WOODING Kerry#351Senior Female0:28:38 5.3 40385
BRADY Lynda#360Senior Female0:28:38 5.3 40486
JONES Lyndon#105Senior Male0:28:42 5.3 405187
ZORIN Katerina#404Junior Female0:28:53 5.3 40625
BRISTOW Fiona#405Junior Female0:28:59 5.3 40726
HILL Tom#411Junior Male0:29:06 5.3 40832
NASH Andrew#412Junior Male0:29:07 5.3 40933
LEWIS Simone#479Senior Female0:29:08 5.3 41087
PARRY Sue#46740+ Female0:29:12 5.2 41114
NASH Amy#487Senior Female0:30:07 5.1 41288
KELLY Elissa#410Junior Female0:30:23 5 41327
PORTCH Deane#36640+ Male0:30:24 5 41465
STEVENS Kevin#37140+ Male0:30:24 5 41566
WILLEMS Lisa#442Senior Female0:30:29 5 41689
BROWN Judith#49040+ Female0:30:30 5 41715
WEBSTER Catherine#481Senior Female0:30:48 5 41890
BEWLEY Rikki#30140+ Female0:31:34 4.8 41916
MAKI Leela#36440+ Female0:32:31 4.7 42017
REID Heather#53540+ Female0:32:34 4.7 42118
HARBERT Paul#115Senior Male0:32:46 4.7 422188
WARD Shane#100Senior Male0:34:23 4.4 423189
SAGE Albert#37440+ Male0:35:02 4.4 42467
WEBSTER Peter#39540+ Male0:35:02 4.4 42568
WEIR Warren#43440+ Male0:35:06 4.4 42669
WHITE Donald#36940+ Male0:40:32 3.8 42770
CASEY Elizabeth#39640+ Female0:52:22 2.9 42819